This demonstration page uses our WeatherBlox Daily Observations layout. Learn more.

Left ArrowRight Arrow

38.20091, -84.87328

Hourly Observations for May 13, 2020

Temp ( °F °C ) Dew Point ( °F °C ) Humidity (%) Winds ( mph kmh ) Pressure ( in mb ) Visibility ( mi km ) Precip ( " mm )
12:53 am 00:53 Cloudy 51 10.6 42 5.6 71 71 Calm 30.24 1024 10 16 0.00 0.00
1:53 am 01:53 Cloudy 50 10 43 6.1 77 77 Calm 30.25 1024 10 16 0.00 0.00
2:53 am 02:53 Cloudy 50 10 43 6.1 77 77 Calm 30.24 1024 10 16 0.00 0.00
3:53 am 03:53 Cloudy 50 10 43 6.1 77 77 Calm 30.23 1024 10 16 0.00 0.00
4:53 am 04:53 Cloudy 49 9.4 44 6.7 83 83 Calm 30.25 1024 10 16 0.00 0.00
5:53 am 05:53 Cloudy 50 10 44 6.7 80 80 Calm 30.24 1024 10 16 0.00 0.00
6:53 am 06:53 Cloudy with Light Rain 50 10 44 6.7 80 80 SSE 5 7 30.26 1025 8 13 0.02 0.51
7:53 am 07:53 Cloudy 50 10 45 7.2 83 83 Calm 30.28 1025 10 16 0.01 0.25
8:53 am 08:53 Cloudy 51 10.6 46 7.8 83 83 Calm 30.30 1026 10 16 0.00 0.00
9:53 am 09:53 Cloudy 51 10.6 46 7.8 83 83 ESE 5 7 30.30 1026 10 16 0.00 0.00
10:53 am 10:53 Cloudy 51 10.6 46 7.8 83 83 SSE 8 13 30.31 1026 10 16 0.00 0.00
11:53 am 11:53 Cloudy 51 10.6 47 8.3 86 86 SE 10 17 30.31 1026 7 11 0.00 0.00
12:38 pm 12:38 Cloudy with Haze 52 11.1 47 8.3 83 83 SE 10 17 30.31 1026 6 10 0.01 0.25
12:53 pm 12:53 Cloudy with Mist and Fog 52 11.1 48 8.9 86 86 ESE 9 15 30.29 1026 5 8 0.01 0.25
1:53 pm 13:53 Cloudy with Mist and Fog 52 11.1 48 8.9 86 86 E 13 20 30.27 1025 5 8 0.00 0.00
2:31 pm 14:31 Cloudy 53 11.7 48 8.9 83 83 E 12 19 30.26 1025 7 11 0.00 0.00
2:53 pm 14:53 Cloudy with Mist and Fog 53 11.7 49 9.4 86 86 ESE 9 15 30.25 1024 6 10 0.00 0.00
3:53 pm 15:53 Cloudy 53 11.7 49 9.4 86 86 E 8 13 30.23 1024 10 16 0.00 0.00
4:21 pm 16:21 Cloudy with Light Rain 54 12.2 49 9.4 83 83 E 10 17 30.22 1023 4 6 0.00 0.00
4:53 pm 16:53 Cloudy with Light Rain 53 11.7 50 10 89 89 E 6 9 30.21 1023 4 6 0.01 0.25
5:09 pm 17:09 Cloudy with Light Rain 53 11.7 50 10 89 89 E 7 11 30.20 1023 3 4 0.00 0.00
5:14 pm 17:14 Cloudy with Light Rain 53 11.7 50 10 89 89 E 7 11 30.21 1023 3 5 0.00 0.00
5:31 pm 17:31 Cloudy with Light Rain 53 11.7 51 10.6 93 93 E 7 11 30.20 1023 2 3 0.01 0.25
5:39 pm 17:39 Cloudy with Light Rain 53 11.7 50 10 89 89 E 8 13 30.20 1023 2 3 0.02 0.51
5:53 pm 17:53 Cloudy with Light Rain 53 11.7 51 10.6 93 93 E 7 11 30.21 1023 2 3 0.03 0.76
5:58 pm 17:58 Cloudy with Light Rain 53 11.7 51 10.6 93 93 E 7 11 30.21 1023 2 3 0.00 0.00
6:05 pm 18:05 Cloudy with Light Rain 53 11.7 51 10.6 93 93 E 7 11 30.20 1023 2 3 0.01 0.25
6:39 pm 18:39 Cloudy with Rain 53 11.7 51 10.6 93 93 E 8 13 30.20 1023 2 3 0.06 1.52
6:49 pm 18:49 Cloudy with Rain 54 12 52 11 94 94 E 6 9 30.20 1023 2 3 0.09 2.29
6:53 pm 18:53 Cloudy with Light Rain 53 11.7 51 10.6 93 93 E 7 11 30.20 1023 2 3 0.10 2.54
7:10 pm 19:10 Cloudy with Light Rain 54 12.2 51 10.6 90 90 E 5 7 30.19 1022 6 10 0.01 0.25
7:21 pm 19:21 Cloudy with Mist and Fog 54 12.2 51 10.6 90 90 E 6 9 30.19 1022 5 8 0.01 0.25
7:41 pm 19:41 Cloudy with Light Rain 54 12.2 51 10.6 90 90 E 5 7 30.19 1022 2 3 0.02 0.51
7:48 pm 19:48 Cloudy with Light Rain 54 12 52 11 94 94 E 5 7 30.19 1022 3 5 0.03 0.76
7:53 pm 19:53 Cloudy with Light Rain 54 12.2 51 10.6 90 90 E 5 7 30.19 1022 3 4 0.03 0.76
8:03 pm 20:03 Cloudy with Mist and Fog 54 12.2 51 10.6 90 90 ESE 6 9 30.19 1022 3 5 0.00 0.00
8:39 pm 20:39 Cloudy 54 12.2 52 11.1 93 93 ESE 6 9 30.19 1022 8 13 0.00 0.00
8:53 pm 20:53 Cloudy 54 12.2 51 10.6 90 90 ESE 6 9 30.18 1022 10 16 0.00 0.00
9:53 pm 21:53 Cloudy with Mist and Fog 54 12.2 52 11.1 93 93 SSW 5 7 30.18 1022 6 10 0.00 0.00
9:59 pm 21:59 Cloudy with Mist and Fog 54 12.2 52 11.1 93 93 E 9 15 30.18 1022 6 10 0.00 0.00
10:11 pm 22:11 Cloudy 54 12.2 52 11.1 93 93 SSE 3 6 30.18 1022 7 11 0.00 0.00
10:20 pm 22:20 Cloudy 54 12.2 52 11.1 93 93 ESE 6 9 30.18 1022 9 14 0.00 0.00
10:37 pm 22:37 Cloudy 55 12.8 52 11.1 90 90 ESE 7 11 30.18 1022 10 16 0.00 0.00
10:48 pm 22:48 Cloudy 55 13 52 11 88 88 ESE 5 7 30.18 1022 10 16 0.00 0.00
10:53 pm 22:53 Cloudy 55 12.8 52 11.1 90 90 ESE 6 9 30.17 1022 10 16 0.00 0.00
11:10 pm 23:10 Cloudy 55 12.8 52 11.1 90 90 ESE 5 7 30.17 1022 9 14 0.00 0.00
11:53 pm 23:53 Mostly Cloudy 54 12.2 52 11.1 93 93 ESE 5 7 30.16 1021 9 14 0.00 0.00

Powered by AerisWeather